Regional Weather Roundup
Issued by NWS

Home | Current Version | Previous Version | Graphics & Text | Print | Product List | Glossary On
Versions: 1 2 3 4 5 6 7 8 9 10 11 12 13 14 15 16 17 18 19 20 21 22 23 24 25 26 27 28 29 30 31 32 33 34 35 36 37 38 39 40 41 42 43 44 45 46 47 48 49 50
000
ASUS45 KTFX 232210
RWRMT
MONTANA REGIONAL WEATHER ROUNDUP
NATIONAL WEATHER SERVICE GREAT FALLS MT
400 PM MDT THU MAR 23 2017

NOTE: "FAIR" INDICATES FEW OR NO CLOUDS BELOW 12000 FEET WITH NO
SIGNIFICANT WEATHER AND/OR OBSTRUCTIONS TO VISIBILITY.

MTZ001>007-043-232300-
WEST OF THE DIVIDE

CITY           SKY/WX    TMP DP  RH WIND       PRES   REMARKS
KALISPELL      PTSUNNY   50  24  36 SW12      29.98R
MISSOULA       MOSUNNY   51  24  34 NW14G23   29.98R
BUTTE          SUNNY     48  20  32 N13       29.90S
MULLAN PASS    CLOUDY    28  26  92 CALM      29.98S
ANACONDA         N/A     48  21  34 N14G21    29.90F
DEER LODGE       N/A     46  21  36 NW16G25   29.93S
EUREKA           N/A     50  21  32 S8        29.98
HAMILTON         N/A     54  21  28 CALM      29.96S
PLAINS           N/A     51  28  41 W12       30.02S
RONAN            N/A     51  27  39 W6        30.04S
$$

MTZ008-052>055-232300-
SOUTHWEST MONTANA

CITY           SKY/WX    TMP DP  RH WIND       PRES   REMARKS
BOZEMAN        MOSUNNY   53  24  32 W8        29.89R
DILLON         SUNNY     50  24  36 SW5       29.87
W YELLOWSTONE  CLOUDY    45  19  36 CALM      29.86R
ENNIS          MOSUNNY   50  27  40 N8G15     29.93R
THREE FORKS      N/A     53  53 100 N7        29.89S
TWIN BRIDGES     N/A     53  19  26 N3        29.89R
$$

MTZ009-010-012-014-046-048-049-054-232300-
EAST SLOPES AND CENTRAL MONTANA

CITY           SKY/WX    TMP DP  RH WIND       PRES   REMARKS
CUT BANK       SUNNY     51  22  31 W23G30    29.85R
GREAT FALLS    SUNNY     56  16  20 W15       29.85R
MALMSTROM AFB  SUNNY     54  16  22 W13       29.85S
HELENA         SUNNY     54  21  27 W18       29.89S
AUGUSTA          N/A     49  20  31 W16G31    29.87R
BOWMANS CRNR     N/A     50  18  28 W15       29.85R
CHOTEAU          N/A     52  18  25 W13       29.88R
CONRAD           N/A     54  24  31 W16       29.88S
FAIRFIELD        N/A     53  18  24 W16G23    29.85R
POWER            N/A     53  17  23 SW6       29.84R
RAYNESFORD       N/A     53  20  27 W18       29.85R
$$

MTZ011-013-016-021-045-047-050-051-232300-
NORTH CENTRAL MONTANA

CITY           SKY/WX    TMP DP  RH WIND       PRES   REMARKS
HAVRE          CLOUDY    58  24  27 NW14      29.81R
LEWISTOWN      MOSUNNY   54  23  30 NW9G17    29.83R
N BAR RANCH      N/A     55  23  28 NW15      29.85R
CHINOOK          N/A     59  23  25 W10G17    29.80S
DENTON           N/A     55  20  25 NW14G22   29.80S
FORT BENTON      N/A     57  19  23 MISG      29.83S
GEYSER           N/A     53  22  29 NW18G28   29.84R
GRASS RANGE      N/A     54  24  30 NW15      29.79R
STANFORD         N/A     53  20  27 NW24G33   29.83R
WINIFRED         N/A     55  20  26 W15G21    29.82S
$$

MTZ017>020-022>027-061-062-232300-
NORTHEAST MONTANA

CITY           SKY/WX    TMP DP  RH WIND       PRES   REMARKS
GLASGOW        SUNNY     61  29  29 NW10G20   29.77R
JORDAN           N/A     60  29  30 NW16G23   29.78R
SIDNEY         MOSUNNY   58  42  55 NE10      29.75R
WOLF POINT     PTSUNNY   65  30  27 NW7       29.73S
MALTA          MOSUNNY   59  32  36 W13       29.79R
PLENTYWOOD       N/A     55  37  50 E5        29.77R
POPLAR           N/A     61  37  41 CALM      29.75S
SCOBEY           N/A     59  30  33 NW13      29.77R
$$

MTZ028>42-056>058-232300-
SOUTHCENTRAL AND SOUTHEAST MONTANA

CITY           SKY/WX    TMP DP  RH WIND       PRES   REMARKS
BAKER          CLOUDY    52  36  54 SE6       29.77S
BILLINGS       CLOUDY    54  36  50 S7        29.82R
LIVINGSTON     PTSUNNY   54  27  35 NW12G21   29.84R
MILES CITY     CLOUDY    58  41  53 NW10      29.77S
BIG TIMBER     SUNNY     57  25  28 W18G28    29.83S
EKALAKA          N/A     46  38  74 NE3       29.78S
FORSYTH          N/A     55  39  54 SW5       29.79S
HARLOWTON        N/A     55  24  30 N17       29.82R
LAUREL           N/A     56  34  43 E5        29.83R
$$

REGIONAL REPORTS...DAKOTAS

CITY           SKY/WX    TMP DP  RH WIND       PRES   REMARKS
WILLISTON      CLOUDY    58  37  45 NE10      29.75S
MINOT          CLOUDY    41  34  76 N10       29.77R
DICKINSON      CLOUDY    50  35  56 NW6       29.73S
BEACH            N/A    N/A N/A N/A MISG        N/A
TIOGA            N/A     50  39  66 NE9       29.78R
WATFORD CITY     N/A     54  39  58 NE7       29.74S
BISMARCK       LGT RAIN  41  38  89 NW9       29.76R
GRAND FORKS    CLOUDY    38  35  89 S7        29.78R
FARGO          HVY RAIN  37  36  96 SE10G20   29.79R FOG     WCI  30
BUFFALO SD       N/A     44  41  89 NE18      29.71R
RAPID CITY     CLOUDY    50  42  74 NW25      29.70R
$$

REGIONAL REPORTS...WYOMING/IDAHO/WASHINGTON

CITY           SKY/WX    TMP DP  RH WIND       PRES   REMARKS
GILLETTE       LGT RAIN  40  32  73 N20       29.80R
SHERIDAN       LGT RAIN  44  40  85 NW12      29.86R
BUFFALO WY     LGT RAIN  40  35  83 N14G25    29.85R
CODY           CLOUDY    45  30  55 N16       29.87R
YELLOWSTONE LA   N/A     40  22  48 NW6       29.87R
IDAHO FALLS    PTSUNNY   54  27  35 NW12      29.86R
SALMON         SUNNY     54  21  28 CALM      29.90F
BOISE          SUNNY     54  25  32 NW10G21   30.01F
SPOKANE        PTSUNNY   46  28  49 S9        30.04F
$$

REGIONAL REPORTS...ALBERTA

CITY           SKY/WX    TMP DP  RH WIND       PRES   REMARKS
EDMONTON       MOSUNNY   36  27  69 SE3       29.85S
CALGARY        PTSUNNY   48  16  27 NW15      29.81R
LETHBRIDGE     MOSUNNY   55  18  22 W25G32    29.80S
MEDICINE HAT   MOSUNNY   59  25  27 W9        29.77R
WATERTON GATE    N/A     46  18  31 SW20G28     N/A
CARDSTON         N/A     48  18  29 W18G28      N/A
MILK RIVER       N/A     57  21  24 W17G24      N/A
$$

REGIONAL REPORTS...SASKATCHEWAN

CITY           SKY/WX    TMP DP  RH WIND       PRES   REMARKS
SWIFT CURRENT  SUNNY     52  34  50 NW10      29.76R
REGINA         MOSUNNY   48  30  49 NW8       29.79R
SASKATOON      MOSUNNY   39  25  56 N8        29.86R
CYPRESS HILLS    N/A     52  19  28 NW9G17      N/A
VAL MARIE        N/A     57  27  30 NW14G22     N/A
ROCKGLEN         N/A     54  30  40 NW7         N/A
ASSINIBOIA       N/A     28  14  54 NE1         N/A
$$



USA.gov is the U.S. government's official web portal to all federal, state and local government web resources and services.